Weather in Masbate

Philippines     12°21′28″N   123°37′41″E
temp.,
°C
wind,
m/s
gust,
m/s
humid.,
%
clouds,
%
prec.,
mm/h
press.,
hPa
HPBL,
m
13 may, thu
thu1323:00+26e47810 0.1 1011353
02:00+26ene47850 0.1 1009320
05:00+26ene48860 0.0 1009494
08:00+28ene587613 0.1 1010900
11:00+30ne67667 0.1 10091102
14:00+30ne686728 0.4 1007899
17:00+28ne68778 0.8 1007550
20:00+27ene59825 1.2 1009417
14 may, fri
fri1423:00+26e4784100 0.1 1009371
02:00+26ene368765 0.1 1008261
05:00+26e3687100 0.0 1009257
08:00+28ene477485 0.0 1010826
11:00+31ne466525 0.0 10091127
14:00+30ene666664 0.6 10071030
17:00+28ene687482 1.1 1007697
20:00+27ene47825 1.7 1009314
15 may, sat
sat1523:00+26ene47845 0.2 1010420
02:00+26ene58860 0.2 1008515
05:00+26e58877 0.0 1008532
08:00+28ene58750 0.2 1010822
11:00+31ne46666 0.2 10091061
14:00+31ne56653 0.3 1007984
17:00+29ne577698 0.4 1007460
20:00+27ene588255 0.9 1009387
16 may, sun
sun1623:00+27ene488394 0.2 1009493
02:00+27ene478267 0.4 1007449
05:00+26e4884100 0.6 1008431
08:00+29e587312 0.7 1009833
11:00+31ene466495 0.1 10081116
14:00+31ne556599 0.3 1007961
17:00+29ne6773100 0.6 1007496
20:00+27ne698399 0.7 1009463
17 may, mon
mon1723:00+27ene5885100 0.0 1009544
02:00+26ene478898 0.8 1008391
05:00+26ene4886100 0.9 1008427
08:00+28ene5777100 1.0 1010718
11:00+31ne4664100 0.1 10091053
14:00+31ne5561100 0.3 1007893
17:00+29ne697498 0.3 1007575
20:00+27ne598499 0.9 1009500